This is the latest recevied weather packets stored in our database for station/object DC0VZ-6. If no packets are shown the sender has not sent any weather packets the latest 10 day(s).
| Time | Temp. | Humidity | Pressure | Rain* | Wind** | Luminosity | Snow |
|---|---|---|---|---|---|---|---|
| 1778091373 | 13.33° C | 45% | 975.6 hPa | 0 mm | - | - | - |
| 1778090773 | 13.33° C | 45% | 975.6 hPa | 0 mm | - | - | - |
| 1778090173 | 13.33° C | 45% | 975.4 hPa | 0 mm | - | - | - |
| 1778089573 | 13.89° C | 45% | 975.4 hPa | 0 mm | - | - | - |
| 1778088973 | 13.89° C | 45% | 975.4 hPa | 0 mm | - | - | - |
| 1778088373 | 13.89° C | 45% | 975.4 hPa | 0 mm | - | - | - |
| 1778087773 | 13.89° C | 45% | 975.1 hPa | 0 mm | - | - | - |
| 1778087173 | 13.89° C | 45% | 975.1 hPa | 0 mm | - | - | - |
| 1778086572 | 13.89° C | 45% | 975.2 hPa | 0 mm | - | - | - |
| 1778085972 | 14.44° C | 45% | 975.2 hPa | 0 mm | - | - | - |
| 1778085373 | 14.44° C | 45% | 975.4 hPa | 0 mm | - | - | - |
| 1778084772 | 15° C | 46% | 975.4 hPa | 0 mm | - | - | - |
| 1778084172 | 15.56° C | 46% | 975.4 hPa | 0 mm | - | - | - |
| 1778083572 | 15.56° C | 46% | 975.4 hPa | 0 mm | - | - | - |
| 1778082972 | 16.11° C | 46% | 975.1 hPa | 0 mm | - | - | - |
| 1778082372 | 16.11° C | 46% | 975.1 hPa | 0 mm | - | - | - |
| 1778081772 | 16.67° C | 46% | 975.2 hPa | 0 mm | - | - | - |
| 1778081172 | 16.11° C | 47% | 975.2 hPa | 0 mm | - | - | - |
| 1778080572 | 16.67° C | 47% | 975.1 hPa | 0 mm | - | - | - |
| 1778079972 | 16.67° C | 47% | 975.1 hPa | 0 mm | - | - | - |
| 1778079372 | 16.67° C | 47% | 974.8 hPa | 0 mm | - | - | - |
| 1778078772 | 16.11° C | 47% | 974.8 hPa | 0 mm | - | - | - |
| 1778078171 | 15.56° C | 48% | 974.9 hPa | 0 mm | - | - | - |
| 1778077571 | 15.56° C | 48% | 974.9 hPa | 0 mm | - | - | - |
| 1778076971 | 16.67° C | 48% | 974.8 hPa | 0 mm | - | - | - |
* Rain latest hour (hover to see other rain measurements)
** Current wind speed in m/s (hover to see current wind gust speed)